Weather History for KDEW - February, 2013

Change the Weather History Date:

Friday, February 15, 2013

  Actual Average Record
Temperature  
Mean Temperature 30 °F 30 °F  
Max Temperature 45 °F 39 °F - ()
Min Temperature 15 °F 21 °F - ()
Degree Days  
Heating Degree Days 35 35  
Month to date heating degree days 518 533  
Since 1 July heating degree days 4626 4929  
Cooling Degree Days 0 0  
Month to date cooling degree days 0 0  
Year to date cooling degree days 0 0  
Moisture  
Dew Point 23 °F    
Average Humidity 79    
Maximum Humidity 100    
Minimum Humidity 58    
Precipitation  
Precipitation 0.00 in 0.05 in - ()
Month to date precipitation 0.03 0.95  
Year to date precipitation 1.53 3.58  
Sea Level Pressure  
Sea Level Pressure 30.50 in    
Wind  
Wind Speed 1 mph (NW)    
Max Wind Speed 6 mph    
Max Gust Speed 7 mph    
Visibility 8 miles    
Events Fog    
T = Trace of Precipitation, MM = Missing Value Source: NWS Daily Summary

Daily Weather History Graph

Daily Weather History Graph

Search for Another Location

Airport or City:

Trip Planner

Search our weather history database for the weather conditions in past years. The results will help you decide how hot, cold, wet, or windy it might be!

Date:

Astronomy

Feb. 15, 2013 Rise Set
Actual Time 6:55 AM PST 5:12 PM PST
Civil Twilight 6:23 AM PST 5:44 PM PST
Nautical Twilight 5:47 AM PST 6:21 PM PST
Astronomical Twilight 5:11 AM PST 6:57 PM PST
Moon 9:04 AM PST (2/15) 11:50 PM PST (2/15)
Length of Visible Light 11h 21m
Length of Day
10h 17m
Waxing Crescent, 31% of the Moon is Illuminated
Feb 15
Waxing Crescent
Feb 17
First Quarter
Feb 25
Full
Mar 4
Last Quarter
Mar 11
New

Hourly Weather History & Observations

Time (PST) Temp. Windchill Dew Point Humidity Pressure Visibility Wind Dir Wind Speed Gust Speed Precip Events Conditions
12:53 AM 23.0 °F - 21.0 °F 92% 30.58 in 10.0 mi Calm Calm - N/A   Clear
1:53 AM 19.9 °F - 19.0 °F 96% 30.58 in 10.0 mi Calm Calm - N/A   Clear
2:53 AM 21.0 °F - 19.0 °F 92% 30.59 in 7.0 mi Calm Calm - N/A   Clear
3:16 AM 19.4 °F - 17.6 °F 93% 30.52 in 1.5 mi Calm Calm - N/A   Clear
3:22 AM 19.4 °F - 19.4 °F 100% 30.52 in 0.5 mi Calm Calm - N/A Fog Light Freezing Fog
3:42 AM 19.4 °F - 19.4 °F 100% 30.51 in 1.2 mi Calm Calm - N/A   Partly Cloudy
3:46 AM 17.6 °F - 17.6 °F 100% 30.51 in 3.0 mi Calm Calm - N/A   Partly Cloudy
3:53 AM 21.0 °F - 19.9 °F 96% 30.59 in 4.0 mi Calm Calm - N/A   Clear
4:53 AM 19.9 °F - 18.0 °F 92% 30.59 in 10.0 mi Calm Calm - N/A   Clear
5:53 AM 16.0 °F 10.4 °F 15.1 °F 96% 30.60 in 10.0 mi WNW 3.5 mph - N/A   Clear
6:53 AM 15.1 °F 9.4 °F 12.9 °F 91% 30.61 in 10.0 mi NNW 3.5 mph - N/A   Clear
7:53 AM 19.0 °F - 17.1 °F 92% 30.60 in 10.0 mi Calm Calm - N/A   Clear
8:53 AM 24.1 °F - 24.1 °F 100% 30.60 in 10.0 mi Calm Calm - N/A   Clear
9:53 AM 28.9 °F 25.2 °F 26.1 °F 89% 30.59 in 10.0 mi West 3.5 mph - N/A   Clear
10:53 AM 34.0 °F - 28.9 °F 82% 30.57 in 10.0 mi Calm Calm - N/A   Clear
11:53 AM 37.0 °F 34.5 °F 30.0 °F 76% 30.55 in 10.0 mi WSW 3.5 mph - N/A   Scattered Clouds
12:53 PM 39.9 °F - 30.0 °F 68% 30.52 in 10.0 mi Calm Calm - N/A   Clear
1:53 PM 44.1 °F - 30.9 °F 60% 30.50 in 10.0 mi Calm Calm - N/A   Clear
2:53 PM 44.1 °F - 32.0 °F 63% 30.47 in 10.0 mi Calm Calm - N/A   Clear
3:53 PM 44.1 °F - 30.9 °F 60% 30.45 in 10.0 mi Calm Calm - N/A   Clear
4:53 PM 41.0 °F - 30.9 °F 67% 30.43 in 10.0 mi Calm Calm - N/A   Clear
5:53 PM 32.0 °F - 28.0 °F 85% 30.44 in 10.0 mi Calm Calm - N/A   Clear
6:53 PM 28.0 °F 22.8 °F 25.0 °F 88% 30.43 in 10.0 mi NW 4.6 mph - N/A   Clear
7:53 PM 27.0 °F - 25.0 °F 92% 30.40 in 10.0 mi Calm Calm - N/A   Clear
8:53 PM 28.9 °F - 26.1 °F 89% 30.37 in 10.0 mi Calm Calm - N/A   Clear
9:53 PM 26.1 °F 20.5 °F 24.1 °F 92% 30.35 in 10.0 mi North 4.6 mph - N/A   Clear
10:53 PM 24.1 °F 19.7 °F 23.0 °F 96% 30.34 in 10.0 mi NNW 3.5 mph - N/A   Clear
11:53 PM 25.0 °F - 24.1 °F 96% 30.32 in 10.0 mi Calm Calm - N/A   Clear